Total_Precipitation_Accumulation
1.36 1.64 1.68 1.81 1.54 1.51 1.45 1.33 1.15 1.09 0.97 0.87 0.85 0.85 0.91 0.92 1.02 1.20 1.20 1.17 1.23 1.47 1.81 1.97 1.91 1.90 1.84 1.76 1.61 1.46 1.32 1.25 1.13 0.99 0.82 0.71 0.64 0.61 0.62 0.66 0.66 0.61 0.60
1.87 2.21 2.28 2.19 1.96 1.97 2.06 2.04 1.84 1.62 1.44 1.33 1.21 1.20 1.22 1.25 1.38 1.42 1.37 1.34 1.23 1.30 1.65 1.93 2.14 2.28 2.21 1.98 1.73 1.59 1.56 1.48 1.35 1.21 1.07 0.96 0.87 0.82 0.79 0.76 0.75 0.69 0.63
2.37 2.43 2.66 2.60 2.40 2.30 2.25 2.20 2.34 2.32 1.95 1.65 1.51 1.51 1.62 1.60 1.64 1.67 1.70 1.70 1.48 1.38 1.50 1.73 1.94 2.08 2.15 2.11 1.95 1.81 1.80 1.64 1.48 1.33 1.24 1.16 1.09 1.04 0.98 0.88 0.86 0.84 0.78
2.63 2.68 2.69 2.68 2.59 2.55 2.74 2.80 2.70 2.62 2.48 2.21 2.02 1.86 1.80 1.87 1.75 1.68 1.67 1.79 1.85 1.58 1.41 1.43 1.54 1.66 1.89 2.16 2.26 2.28 2.14 1.92 1.71 1.54 1.44 1.34 1.25 1.15 1.05 0.98 0.96 0.96 0.92
3.02 3.12 3.16 3.19 3.05 3.08 3.04 2.88 3.04 2.93 2.81 2.58 2.20 1.99 1.82 1.85 1.76 1.54 1.53 1.67 1.76 1.68 1.60 1.44 1.48 1.59 1.82 2.09 2.27 2.42 2.34 2.15 1.98 1.84 1.73 1.63 1.48 1.33 1.21 1.13 1.10 1.09 1.07
3.82 3.83 3.75 3.73 3.59 3.48 3.33 3.23 3.17 2.95 2.79 2.56 2.14 1.93 1.75 1.59 1.54 1.53 1.39 1.41 1.46 1.38 1.47 1.49 1.52 1.45 1.60 1.81 2.03 2.22 2.24 2.22 2.12 1.95 1.80 1.76 1.67 1.53 1.41 1.33 1.26 1.22 1.22
4.29 4.15 4.04 4.04 3.85 3.67 3.46 3.32 3.20 3.11 2.80 2.55 2.46 2.15 1.71 1.48 1.37 1.29 1.28 1.26 1.21 1.22 1.39 1.43 1.41 1.38 1.38 1.57 1.65 1.81 2.02 2.14 2.20 2.13 2.00 1.91 1.76 1.58 1.49 1.46 1.45 1.42 1.35
4.61 4.42 4.40 4.29 4.03 3.82 3.57 3.35 3.21 3.16 2.92 2.70 2.65 2.54 2.02 1.63 1.29 1.03 1.05 1.09 1.09 1.16 1.22 1.23 1.20 1.22 1.29 1.37 1.38 1.57 1.80 1.99 2.13 2.17 2.11 1.92 1.80 1.68 1.61 1.59 1.59 1.59 1.55
5.00 4.81 4.67 4.37 4.11 3.81 3.52 3.25 3.05 2.98 2.90 2.78 2.59 2.65 2.32 1.89 1.47 1.16 0.99 0.94 1.00 1.11 1.16 1.16 1.13 1.09 1.15 1.26 1.36 1.41 1.49 1.53 1.67 1.83 1.84 1.83 1.81 1.73 1.65 1.65 1.65 1.67 1.71
4.33 4.21 4.12 3.90 3.65 3.38 3.17 2.93 2.73 2.63 2.72 2.63 2.50 2.32 2.16 1.91 1.68 1.40 1.12 0.99 0.98 1.03 1.11 1.12 1.12 1.10 1.11 1.18 1.28 1.34 1.31 1.24 1.31 1.43 1.49 1.47 1.48 1.49 1.50 1.55 1.58 1.63 1.71
3.65 3.38 3.23 3.12 2.96 2.80 2.63 2.55 2.49 2.39 2.35 2.28 2.17 2.08 1.99 1.87 1.64 1.44 1.25 1.08 1.04 1.05 1.08 1.11 1.20 1.20 1.17 1.17 1.15 1.18 1.19 1.11 1.12 1.20 1.24 1.23 1.25 1.33 1.40 1.39 1.40 1.47 1.60
2.99 2.60 2.38 2.27 2.16 2.06 2.05 2.08 2.08 2.04 2.01 1.99 1.97 1.89 1.81 1.79 1.66 1.55 1.36 1.21 1.20 1.14 1.10 1.08 1.08 1.13 1.17 1.15 1.14 1.22 1.05 0.99 0.97 1.00 1.09 1.15 1.17 1.21 1.25 1.32 1.38 1.47 1.56
2.41 2.03 1.83 1.76 1.69 1.65 1.61 1.64 1.66 1.65 1.65 1.67 1.67 1.63 1.64 1.64 1.60 1.57 1.62 1.52 1.29 1.08 1.02 1.03 1.01 1.00 1.03 1.08 1.17 1.22 1.00 0.94 0.93 0.98 1.03 1.04 1.07 1.10 1.15 1.16 1.21 1.30 1.35
1.92 1.67 1.48 1.40 1.29 1.19 1.17 1.22 1.26 1.29 1.29 1.37 1.43 1.49 1.49 1.47 1.45 1.43 1.49 1.57 1.54 1.37 1.19 1.10 1.08 1.07 1.07 1.08 1.20 1.20 1.03 1.11 1.03 1.04 1.04 0.99 0.97 0.96 0.95 0.93 0.93 0.98 1.02
1.37 1.21 1.08 0.99 0.94 0.88 0.89 0.95 1.00 1.01 1.04 1.12 1.20 1.30 1.38 1.44 1.48 1.44 1.47 1.51 1.58 1.57 1.45 1.26 1.21 1.17 1.13 1.13 1.29 1.02 1.01 1.23 1.14 1.06 1.00 0.94 0.90 0.82 0.77 0.73 0.70 0.69 0.68
1.08 0.97 0.82 0.73 0.71 0.72 0.73 0.72 0.77 0.81 0.82 0.87 0.95 1.04 1.16 1.26 1.40 1.47 1.55 1.57 1.57 1.56 1.50 1.31 1.25 1.25 1.18 1.11 1.31 1.08 1.06 1.13 1.00 0.91 0.83 0.77 0.74 0.69 0.65 0.65 0.65 0.63 0.61
1.05 0.93 0.83 0.77 0.72 0.67 0.64 0.66 0.66 0.69 0.75 0.78 0.77 0.83 0.93 0.99 1.12 1.22 1.30 1.35 1.43 1.45 1.46 1.37 1.28 1.27 1.24 1.21 1.19 1.05 0.96 0.91 0.88 0.84 0.73 0.67 0.64 0.59 0.57 0.59 0.61 0.59 0.58
0.88 0.80 0.72 0.71 0.68 0.64 0.62 0.62 0.60 0.57 0.57 0.59 0.62 0.68 0.74 0.77 0.86 0.90 0.97 1.06 1.13 1.20 1.24 1.34 1.41 1.34 1.27 1.25 1.16 1.01 0.82 0.72 0.72 0.75 0.68 0.65 0.65 0.64 0.61 0.60 0.59 0.57 0.53
0.75 0.74 0.68 0.63 0.59 0.57 0.54 0.52 0.51 0.47 0.43 0.44 0.46 0.50 0.56 0.60 0.62 0.62 0.66 0.72 0.81 0.93 1.08 1.19 1.28 1.29 1.26 1.25 1.21 0.98 0.80 0.77 0.62 0.62 0.58 0.58 0.59 0.60 0.59 0.53 0.49 0.47 0.45
0.69 0.69 0.61 0.53 0.46 0.42 0.38 0.40 0.44 0.40 0.35 0.34 0.36 0.39 0.44 0.46 0.47 0.48 0.50 0.55 0.63 0.79 0.94 1.03 1.02 1.03 1.07 1.03 1.06 0.98 0.85 0.74 0.62 0.46 0.44 0.41 0.40 0.39 0.41 0.40 0.38 0.37 0.37
0.59 0.57 0.50 0.47 0.42 0.37 0.34 0.35 0.38 0.36 0.34 0.31 0.29 0.29 0.32 0.37 0.41 0.41 0.41 0.48 0.59 0.74 0.84 0.90 0.91 0.84 0.82 0.84 0.86 0.80 0.80 0.74 0.62 0.46 0.42 0.33 0.31 0.33 0.36 0.36 0.35 0.31 0.27
0.55 0.51 0.46 0.43 0.40 0.33 0.33 0.33 0.31 0.35 0.37 0.36 0.32 0.28 0.27 0.28 0.31 0.34 0.37 0.44 0.53 0.61 0.66 0.71 0.74 0.75 0.72 0.71 0.75 0.75 0.74 0.75 0.71 0.53 0.47 0.39 0.30 0.37 0.37 0.34 0.29 0.25 0.23
0.52 0.48 0.44 0.42 0.42 0.38 0.33 0.29 0.30 0.36 0.40 0.40 0.37 0.35 0.29 0.25 0.32 0.35 0.36 0.39 0.44 0.46 0.52 0.62 0.68 0.69 0.67 0.72 0.81 0.81 0.80 0.77 0.73 0.58 0.57 0.56 0.44 0.44 0.32 0.24 0.24 0.21 0.20
0.53 0.51 0.49 0.45 0.42 0.36 0.32 0.30 0.30 0.33 0.40 0.39 0.37 0.37 0.39 0.39 0.36 0.36 0.33 0.35 0.40 0.45 0.50 0.55 0.66 0.67 0.62 0.66 0.78 0.82 0.78 0.72 0.68 0.65 0.67 0.69 0.51 0.44 0.30 0.36 0.34 0.25 0.20
0.52 0.47 0.47 0.44 0.44 0.38 0.33 0.30 0.31 0.32 0.36 0.32 0.29 0.32 0.33 0.36 0.35 0.36 0.36 0.38 0.40 0.45 0.45 0.52 0.57 0.61 0.67 0.70 0.70 0.72 0.80 0.88 0.84 0.74 0.71 0.76 0.64 0.50 0.40 0.45 0.42 0.32 0.29
0.49 0.42 0.41 0.44 0.45 0.43 0.35 0.30 0.31 0.29 0.31 0.27 0.27 0.29 0.30 0.27 0.26 0.26 0.30 0.41 0.50 0.48 0.45 0.50 0.66 0.83 0.89 0.87 0.77 0.77 0.87 0.93 0.92 0.93 0.79 0.78 0.80 0.64 0.57 0.47 0.45 0.46 0.50